Regional Weather Roundup
Issued by NWS

Home | Current Version | Previous Version | Graphics & Text | Print | Product List | Glossary On
Versions: 1 2 3 4 5 6 7 8 9 10 11 12 13 14 15 16 17 18 19 20 21 22 23 24 25 26 27 28 29 30 31 32 33 34 35 36 37 38 39 40 41 42 43 44 45 46 47 48 49 50
000
ASUS43 KLSX 011210
RWRMO

WEATHER SUMMARY FOR MISSOURI
NATIONAL WEATHER SERVICE SPRINGFIELD MO
700 AM CDT TUE SEP 01 2015

NOTE: "FAIR" INDICATES FEW OR NO CLOUDS BELOW 12,000 FEET WITH NO
       SIGNIFICANT WEATHER AND/OR OBSTRUCTIONS TO VISIBILITY.
       CURRENT SKY AND/OR WEATHER CONDITIONS ARE NOT AVAILABLE FOR
       CHILLICOTHE AND FARMINGTON.

MOZ001>031-035>038-043-044-053-054-011300-
...NORTHERN AND WESTERN MISSOURI...

CITY           SKY/WX    TMP DP  RH WIND       PRES   REMARKS
KANSAS CTY INT PTCLDY    73  68  84 S12       30.02R
6HR MIN TEMP:  72; 6HR MAX TEMP:  74;

KANSAS C DTWN  MOCLDY    75  68  78 S8        30.02R
6HR MIN TEMP:  75; 6HR MAX TEMP:  79;

LEE`S SUMMIT   PTCLDY    73  67  81 S7        30.05R
6HR MIN TEMP:  73; 6HR MAX TEMP:  77;

ST JOSEPH      CLEAR     72  69  90 S6        30.00R
6HR MIN TEMP:  71; 6HR MAX TEMP:  75;

CHILLICOTHE      N/A     70  68  93 S3        30.04R
6HR MIN TEMP:  67; 6HR MAX TEMP:  73;

KIRKSVILLE     CLEAR     70  67  90 S5        30.06R FOG
6HR MIN TEMP:  70; 6HR MAX TEMP:  73;


$$
MOZ066>068-077>081-088>096-101>105-011300-
...SOUTHWEST MISSOURI...

CITY           SKY/WX    TMP DP  RH WIND       PRES   REMARKS
SPRINGFIELD    CLEAR     69  65  86 SE8       30.09S
6HR MIN TEMP:  69; 6HR MAX TEMP:  73;

JOPLIN         CLEAR     70  65  84 S7        30.07R
6HR MIN TEMP:  70; 6HR MAX TEMP:  75;


$$
MOZ032>034-039>042-045>050-055>058-069>072-011300-
...CENTRAL MISSOURI...

CITY           SKY/WX    TMP DP  RH WIND       PRES   REMARKS
COLUMBIA       CLEAR     70  68  93 S6        30.08S
6HR MIN TEMP:  69; 6HR MAX TEMP:  75;

JEFFERSON CITY CLEAR     69  67  93 SE5       30.08R FOG
6HR MIN TEMP:  69; 6HR MAX TEMP:  78;

ROLLA          CLEAR     70  67  90 S8        30.10R
6HR MIN TEMP:  69; 6HR MAX TEMP:  73;

SEDALIA        CLEAR     71  66  84 S8        30.07S
6HR MIN TEMP:  71; 6HR MAX TEMP:  76;

WHITEMAN AFB   CLEAR     69  66  88 S5        30.05R
WARRENSBURG    CLEAR     70  64  83 SE6       30.05R
OSAGE BEACH    CLEAR     70  66  88 SE3       30.09S

$$
MOZ051-052-059>065-011300-
...EAST CENTRAL MISSOURI...

CITY           SKY/WX    TMP DP  RH WIND       PRES   REMARKS
ST LOUIS INTL  PTCLDY    76  69  79 SW3       30.10R
6HR MIN TEMP:  75; 6HR MAX TEMP:  79;

SPIRIT OF STL  CLEAR     70  69  97 CALM      30.09R FOG
6HR MIN TEMP:  69; 6HR MAX TEMP:  77;

ST CHARLES     CLEAR     69  69 100 E3        30.08R FOG
6HR MIN TEMP:  69; 6HR MAX TEMP:  74;


$$
MOZ072>076-082>087-097>100-106>115-011300-
...SOUTH CENTRAL AND SOUTHEAST MISSOURI...

CITY           SKY/WX    TMP DP  RH WIND       PRES   REMARKS
CAPE GIRARDEAU CLEAR     66  65  96 CALM      30.11R FOG
6HR MIN TEMP:  65; 6HR MAX TEMP:  70;

FARMINGTON     CLEAR     68  66  94 CALM      30.14S
6HR MIN TEMP:  68; 6HR MAX TEMP:  72;

POPLAR BLUFF   CLEAR     67  65  93 CALM      30.10S FOG
6HR MIN TEMP:  66; 6HR MAX TEMP:  70;

WEST PLAINS    FOG       68  65  90 CALM      30.14R VSB 3/4
6HR MIN TEMP:  67; 6HR MAX TEMP:  72;


$$


USA.gov is the U.S. government's official web portal to all federal, state and local government web resources and services.